Location: Beetenbrück
(52.8113°N, 9.5946°E)
Time: 22:55:06
(UTC+00:00)

Cosmos 921 Rocket - Pass Details

Date: 14 April 2026
Orbit: 563 x 620 km, 75.8° (Epoch: 12 May)

Event Time Altitude Azimuth Distance (km) Brightness Sun altitude
Rises 22:28:12 0° 335° (NNW) 2,908 7.8 -26.5°
Reaches altitude 10° 22:30:29 10° 332° (NNW) 1,994 6.6 -26.6°
Enters shadow 22:34:04 50° 298° (WNW) 786 3.7 -26.7°
